This is the latest recevied weather packets stored in our database for station/object KB2AHZ. If no packets are shown the sender has not sent any weather packets the latest 10 day(s).
| Time | Temp. | Humidity | Pressure | Rain* | Wind** | Luminosity | Snow |
|---|---|---|---|---|---|---|---|
| 1777990863 | 22.22° C | 57% | 1016.4 hPa | 0 mm | - | 696 W/m² | - |
| 1777990560 | 21.67° C | 58% | 1016.8 hPa | 0 mm | - | 682 W/m² | - |
| 1777989954 | 21.67° C | 59% | 1016.5 hPa | 0 mm | - | 651 W/m² | - |
| 1777989650 | 21.11° C | 60% | 1016.5 hPa | 0 mm | - | 634 W/m² | - |
| 1777989347 | 20.56° C | 61% | 1016.2 hPa | 0 mm | - | 619 W/m² | - |
| 1777989043 | 21.11° C | 62% | 1016.5 hPa | 0 mm | - | 599 W/m² | - |
| 1777988739 | 20.56° C | 62% | 1016.5 hPa | 0 mm | - | 580 W/m² | - |
| 1777988437 | 20.56° C | 64% | 1016.4 hPa | 0 mm | - | 500 W/m² | - |
| 1777988133 | 20° C | 65% | 1016.6 hPa | 0 mm | - | 521 W/m² | - |
| 1777987829 | 20° C | 65% | 1016.5 hPa | 0 mm | - | 508 W/m² | - |
| 1777987526 | 20° C | 66% | 1016.4 hPa | 0 mm | - | 446 W/m² | - |
| 1777987224 | 19.44° C | 65% | 1016.6 hPa | 0 mm | - | 470 W/m² | - |
| 1777986920 | 18.89° C | 67% | 1016.7 hPa | 0 mm | - | 419 W/m² | - |
| 1777986618 | 18.89° C | 67% | 1016.8 hPa | 0 mm | - | 370 W/m² | - |
| 1777986316 | 18.89° C | 67% | 1016.7 hPa | 0 mm | - | 377 W/m² | - |
| 1777986014 | 18.89° C | 67% | 1016.8 hPa | 0 mm | - | 364 W/m² | - |
| 1777985710 | 18.89° C | 68% | 1016.6 hPa | 0 mm | - | 297 W/m² | - |
| 1777985407 | 18.33° C | 69% | 1016.8 hPa | 0 mm | - | 235 W/m² | - |
| 1777985104 | 18.33° C | 68% | 1016.9 hPa | 0 mm | - | 276 W/m² | - |
| 1777984800 | 18.33° C | 69% | 1016.7 hPa | 0 mm | - | 300 W/m² | - |
| 1777984497 | 18.33° C | 68% | 1016.6 hPa | 0 mm | - | 259 W/m² | - |
| 1777984193 | 18.33° C | 69% | 1017 hPa | 0 mm | - | 341 W/m² | - |
| 1777983890 | 17.78° C | 70% | 1016.4 hPa | 0 mm | - | 331 W/m² | - |
| 1777983587 | 17.78° C | 71% | 1016.6 hPa | 0 mm | - | 309 W/m² | - |
| 1777983284 | 17.78° C | 70% | 1016.7 hPa | 0 mm | - | 284 W/m² | - |
* Rain latest hour (hover to see other rain measurements)
** Current wind speed in m/s (hover to see current wind gust speed)